Location: Taaricht
(32.5378°N, 5.4251°W)
Time: 20:09:02
(UTC+00:00)

MOS 1 Rocket - Pass Details

Date: 09 April 2020
Orbit: 614 x 830 km, 97.4° (Epoch: 02 June)

Event Time Altitude Azimuth Distance (km) Brightness Sun altitude
Rises 20:57:55 0° 4° (N) 3,365 7.2 -26.6°
Reaches altitude 10° 21:00:20 10° 359° (N) 2,437 6.4 -27.0°
Maximum altitude 21:05:34 49° 286° (WNW) 1,058 4.5 -27.9°
Drops below altitude 10° 21:10:43 10° 212° (SSW) 2,405 6.0 -28.9°
Enters shadow 21:11:14 - 211° (SSW) 2,599 6.2 -29.0°
